Time,TemperatureF,DewpointF,PressureIn,WindDirection,WindDirectionDegrees,WindSpeedMPH,WindSpeedGustMPH,Humidity,HourlyPrecipIn,Conditions,Clouds,dailyrainin,SoftwareType,DateUTC
2013-05-03 00:04:00,50.7,19.6,30.40,SE,135,9.4,-999.0,29,-99.99,,,0.00,Acu-Link.com,2013-05-03 06:04:00,
2013-05-03 00:19:00,50.2,19.2,30.40,South,180,10.9,-999.0,29,-99.99,,,0.00,Acu-Link.com,2013-05-03 06:19:00,
2013-05-03 00:34:00,49.5,19.4,30.40,SE,135,10.9,-999.0,30,-99.99,,,0.00,Acu-Link.com,2013-05-03 06:34:00,
2013-05-03 00:49:00,49.1,19.0,30.40,SE,135,9.9,-999.0,30,-99.99,,,0.00,Acu-Link.com,2013-05-03 06:49:00,
2013-05-03 01:05:00,48.7,19.4,30.41,SE,135,8.9,-999.0,31,-99.99,,,0.00,Acu-Link.com,2013-05-03 07:05:00,
2013-05-03 01:20:00,48.2,19.7,30.40,SSE,157,16.6,-999.0,32,-99.99,,,0.00,Acu-Link.com,2013-05-03 07:20:00,
2013-05-03 01:35:00,47.8,19.4,30.40,ESE,112,12.5,-999.0,32,-99.99,,,0.00,Acu-Link.com,2013-05-03 07:35:00,
2013-05-03 01:50:00,47.7,20.0,30.40,East,90,10.4,-999.0,33,-99.99,,,0.00,Acu-Link.com,2013-05-03 07:50:00,
2013-05-03 02:05:00,47.1,19.5,30.40,ESE,112,7.8,-999.0,33,-99.99,,,0.00,Acu-Link.com,2013-05-03 08:05:00,
2013-05-03 02:21:00,46.9,20.0,30.41,SSE,157,8.3,-999.0,34,-99.99,,,0.00,Acu-Link.com,2013-05-03 08:21:00,
2013-05-03 02:36:00,46.8,19.9,30.41,East,90,14.0,-999.0,34,-99.99,,,0.00,Acu-Link.com,2013-05-03 08:36:00,
2013-05-03 02:51:00,46.2,20.1,30.41,SE,135,14.5,-999.0,35,-99.99,,,0.00,Acu-Link.com,2013-05-03 08:51:00,
2013-05-03 03:06:00,45.7,20.3,30.41,SE,135,9.9,-999.0,36,-99.99,,,0.00,Acu-Link.com,2013-05-03 09:06:00,
2013-05-03 03:22:00,45.3,20.6,30.42,SSE,157,8.3,-999.0,37,-99.99,,,0.00,Acu-Link.com,2013-05-03 09:22:00,
2013-05-03 03:37:00,45.0,20.3,30.42,ESE,112,6.8,-999.0,37,-99.99,,,0.00,Acu-Link.com,2013-05-03 09:37:00,
2013-05-03 03:52:00,44.8,20.1,30.42,East,90,8.9,-999.0,37,-99.99,,,0.00,Acu-Link.com,2013-05-03 09:52:00,
2013-05-03 04:07:00,44.2,20.2,30.42,SE,135,12.5,-999.0,38,-99.99,,,0.00,Acu-Link.com,2013-05-03 10:07:00,
2013-05-03 04:22:00,44.2,20.8,30.42,South,180,4.2,-999.0,39,-99.99,,,0.00,Acu-Link.com,2013-05-03 10:22:00,
2013-05-03 04:37:00,43.9,20.6,30.42,SE,135,9.4,-999.0,39,-99.99,,,0.00,Acu-Link.com,2013-05-03 10:37:00,
2013-05-03 04:52:00,43.5,20.8,30.42,ESE,112,4.7,-999.0,40,-99.99,,,0.00,Acu-Link.com,2013-05-03 10:52:00,
2013-05-03 05:07:00,43.2,21.1,30.42,East,90,4.2,-999.0,41,-99.99,,,0.00,Acu-Link.com,2013-05-03 11:07:00,
2013-05-03 05:22:00,42.8,20.8,30.42,East,90,6.3,-999.0,41,-99.99,,,0.00,Acu-Link.com,2013-05-03 11:22:00,
2013-05-03 05:38:00,42.8,21.3,30.42,SE,135,6.8,-999.0,42,-99.99,,,0.00,Acu-Link.com,2013-05-03 11:38:00,
2013-05-03 05:53:00,42.6,21.1,30.42,SSE,157,4.7,-999.0,42,-99.99,,,0.00,Acu-Link.com,2013-05-03 11:53:00,
2013-05-03 06:08:00,42.3,21.4,30.42,ENE,67,5.8,-999.0,43,-99.99,,,0.00,Acu-Link.com,2013-05-03 12:08:00,
2013-05-03 06:23:00,42.1,21.2,30.42,SE,135,8.9,-999.0,43,-99.99,,,0.00,Acu-Link.com,2013-05-03 12:23:00,
2013-05-03 06:38:00,42.1,21.8,30.42,SSE,157,8.9,-999.0,44,-99.99,,,0.00,Acu-Link.com,2013-05-03 12:38:00,
2013-05-03 06:53:00,42.8,22.4,30.42,SSE,157,5.3,-999.0,44,-99.99,,,0.00,Acu-Link.com,2013-05-03 12:53:00,
2013-05-03 07:08:00,44.4,22.2,30.42,SSE,157,9.9,-999.0,41,-99.99,,,0.00,Acu-Link.com,2013-05-03 13:08:00,
2013-05-03 07:23:00,45.9,22.4,30.42,SSE,157,9.9,-999.0,39,-99.99,,,0.00,Acu-Link.com,2013-05-03 13:23:00,
2013-05-03 07:38:00,45.9,22.4,30.42,SE,135,10.4,-999.0,39,-99.99,,,0.00,Acu-Link.com,2013-05-03 13:38:00,
2013-05-03 07:54:00,47.5,22.5,30.42,SE,135,14.5,-999.0,37,-99.99,,,0.00,Acu-Link.com,2013-05-03 13:54:00,
2013-05-03 08:09:00,48.0,22.3,30.43,SSE,157,7.3,-999.0,36,-99.99,,,0.00,Acu-Link.com,2013-05-03 14:09:00,
2013-05-03 08:24:00,48.9,22.5,30.42,SSW,202,6.3,-999.0,35,-99.99,,,0.00,Acu-Link.com,2013-05-03 14:24:00,
2013-05-03 08:39:00,50.7,22.7,30.41,SSE,157,6.8,-999.0,33,-99.99,,,0.00,Acu-Link.com,2013-05-03 14:39:00,
2013-05-03 08:54:00,50.7,21.2,30.41,SW,225,13.5,-999.0,31,-99.99,,,0.00,Acu-Link.com,2013-05-03 14:54:00,
2013-05-03 09:09:00,51.4,21.8,30.40,SSE,157,10.9,-999.0,31,-99.99,,,0.00,Acu-Link.com,2013-05-03 15:09:00,
2013-05-03 09:24:00,53.4,22.0,30.40,ENE,67,9.9,-999.0,29,-99.99,,,0.00,Acu-Link.com,2013-05-03 15:24:00,
2013-05-03 09:39:00,54.3,22.7,30.39,SE,135,9.9,-999.0,29,-99.99,,,0.00,Acu-Link.com,2013-05-03 15:39:00,
2013-05-03 09:54:00,55.8,22.3,30.38,ESE,112,6.8,-999.0,27,-99.99,,,0.00,Acu-Link.com,2013-05-03 15:54:00,
2013-05-03 10:10:00,56.1,21.7,30.38,ESE,112,8.9,-999.0,26,-99.99,,,0.00,Acu-Link.com,2013-05-03 16:10:00,
2013-05-03 10:25:00,57.4,21.9,30.37,SSE,157,8.9,-999.0,25,-99.99,,,0.00,Acu-Link.com,2013-05-03 16:25:00,
2013-05-03 10:40:00,58.8,21.1,30.36,ESE,112,4.2,-999.0,23,-99.99,,,0.00,Acu-Link.com,2013-05-03 16:40:00,
2013-05-03 10:55:00,59.7,20.8,30.35,SSE,157,6.3,-999.0,22,-99.99,,,0.00,Acu-Link.com,2013-05-03 16:55:00,
2013-05-03 11:10:00,60.3,20.2,30.34,SE,135,12.5,-999.0,21,-99.99,,,0.00,Acu-Link.com,2013-05-03 17:10:00,
2013-05-03 11:25:00,61.9,20.4,30.33,SSE,157,7.3,-999.0,20,-99.99,,,0.00,Acu-Link.com,2013-05-03 17:25:00,
2013-05-03 11:40:00,62.6,19.8,30.32,ESE,112,8.9,-999.0,19,-99.99,,,0.00,Acu-Link.com,2013-05-03 17:40:00,
2013-05-03 11:55:00,64.0,19.7,30.31,ESE,112,5.3,-999.0,18,-99.99,,,0.00,Acu-Link.com,2013-05-03 17:55:00,
2013-05-03 12:10:00,64.9,20.4,30.29,ESE,112,6.8,-999.0,18,-99.99,,,0.00,Acu-Link.com,2013-05-03 18:10:00,
2013-05-03 12:26:00,64.6,18.8,30.28,SSE,157,7.3,-999.0,17,-99.99,,,0.00,Acu-Link.com,2013-05-03 18:26:00,
2013-05-03 12:41:00,67.5,19.7,30.27,ESE,112,6.8,-999.0,16,-99.99,,,0.00,Acu-Link.com,2013-05-03 18:41:00,
2013-05-03 12:56:00,65.5,18.1,30.26,SE,135,7.3,-999.0,16,-99.99,,,0.00,Acu-Link.com,2013-05-03 18:56:00,
2013-05-03 13:11:00,67.5,18.2,30.24,South,180,8.9,-999.0,15,-99.99,,,0.00,Acu-Link.com,2013-05-03 19:11:00,
2013-05-03 13:26:00,66.9,17.8,30.24,SSE,157,7.3,-999.0,15,-99.99,,,0.00,Acu-Link.com,2013-05-03 19:26:00,
2013-05-03 13:41:00,68.9,19.4,30.22,SSE,157,6.3,-999.0,15,-99.99,,,0.00,Acu-Link.com,2013-05-03 19:41:00,
2013-05-03 13:56:00,66.9,16.2,30.21,SSE,157,7.8,-999.0,14,-99.99,,,0.00,Acu-Link.com,2013-05-03 19:56:00,
2013-05-03 14:11:00,71.1,17.8,30.20,ENE,67,4.7,-999.0,13,-99.99,,,0.00,Acu-Link.com,2013-05-03 20:11:00,
2013-05-03 14:27:00,70.5,19.0,30.18,SE,135,6.3,-999.0,14,-99.99,,,0.00,Acu-Link.com,2013-05-03 20:27:00,
2013-05-03 14:42:00,71.1,17.8,30.17,SSE,157,9.9,-999.0,13,-99.99,,,0.00,Acu-Link.com,2013-05-03 20:42:00,
2013-05-03 14:57:00,70.5,17.3,30.15,SSE,157,10.4,-999.0,13,-99.99,,,0.00,Acu-Link.com,2013-05-03 20:57:00,
2013-05-03 15:12:00,71.8,18.3,30.13,SE,135,6.3,-999.0,13,-99.99,,,0.00,Acu-Link.com,2013-05-03 21:12:00,
2013-05-03 15:27:00,72.3,16.9,30.12,ESE,112,6.3,-999.0,12,-99.99,,,0.00,Acu-Link.com,2013-05-03 21:27:00,
2013-05-03 15:42:00,74.5,18.6,30.12,ESE,112,5.8,-999.0,12,-99.99,,,0.00,Acu-Link.com,2013-05-03 21:42:00,
2013-05-03 15:57:00,72.3,16.9,30.10,East,90,5.8,-999.0,12,-99.99,,,0.00,Acu-Link.com,2013-05-03 21:57:00,
2013-05-03 16:13:00,72.1,16.7,30.08,ENE,67,8.3,-999.0,12,-99.99,,,0.00,Acu-Link.com,2013-05-03 22:13:00,
2013-05-03 16:28:00,73.9,18.1,30.07,SSE,157,7.3,-999.0,12,-99.99,,,0.00,Acu-Link.com,2013-05-03 22:28:00,
2013-05-03 16:43:00,73.9,18.1,30.06,SE,135,5.3,-999.0,12,-99.99,,,0.00,Acu-Link.com,2013-05-03 22:43:00,
2013-05-03 16:58:00,74.8,16.8,30.05,ESE,112,8.9,-999.0,11,-99.99,,,0.00,Acu-Link.com,2013-05-03 22:58:00,
2013-05-03 17:13:00,73.2,15.6,30.04,ESE,112,3.2,-999.0,11,-99.99,,,0.00,Acu-Link.com,2013-05-03 23:13:00,
2013-05-03 17:28:00,73.0,17.4,30.03,South,180,4.7,-999.0,12,-99.99,,,0.00,Acu-Link.com,2013-05-03 23:28:00,
2013-05-03 17:43:00,72.3,16.9,30.02,SE,135,6.8,-999.0,12,-99.99,,,0.00,Acu-Link.com,2013-05-03 23:43:00,
2013-05-03 17:58:00,71.4,16.2,30.02,East,90,7.3,-999.0,12,-99.99,,,0.00,Acu-Link.com,2013-05-03 23:58:00,
2013-05-03 18:13:00,70.9,15.8,30.02,East,90,10.4,-999.0,12,-99.99,,,0.00,Acu-Link.com,2013-05-04 00:13:00,
2013-05-03 18:29:00,70.0,16.9,30.01,SE,135,3.2,-999.0,13,-99.99,,,0.00,Acu-Link.com,2013-05-04 00:29:00,
2013-05-03 18:44:00,69.6,16.6,30.01,South,180,4.2,-999.0,13,-99.99,,,0.00,Acu-Link.com,2013-05-04 00:44:00,
2013-05-03 18:59:00,68.5,15.7,30.01,SE,135,3.7,-999.0,13,-99.99,,,0.00,Acu-Link.com,2013-05-04 00:59:00,
2013-05-03 19:14:00,67.1,14.6,30.00,SE,135,3.2,-999.0,13,-99.99,,,0.00,Acu-Link.com,2013-05-04 01:14:00,
2013-05-03 19:29:00,66.2,17.2,30.01,East,90,2.7,-999.0,15,-99.99,,,0.00,Acu-Link.com,2013-05-04 01:29:00,
2013-05-03 19:44:00,64.8,16.1,30.00,SE,135,0.0,-999.0,15,-99.99,,,0.00,Acu-Link.com,2013-05-04 01:44:00,
2013-05-03 19:59:00,63.5,15.0,30.00,ESE,112,1.1,-999.0,15,-99.99,,,0.00,Acu-Link.com,2013-05-04 01:59:00,
2013-05-03 20:14:00,62.6,15.8,30.00,ENE,67,2.2,-999.0,16,-99.99,,,0.00,Acu-Link.com,2013-05-04 02:14:00,
2013-05-03 20:29:00,61.5,16.3,30.00,SSE,157,1.7,-999.0,17,-99.99,,,0.00,Acu-Link.com,2013-05-04 02:29:00,
2013-05-03 20:45:00,60.6,15.6,30.01,ESE,112,0.0,-999.0,17,-99.99,,,0.00,Acu-Link.com,2013-05-04 02:45:00,
2013-05-03 21:00:00,59.0,16.8,30.01,SSW,202,0.0,-999.0,19,-99.99,,,0.00,Acu-Link.com,2013-05-04 03:00:00,
2013-05-03 21:15:00,57.4,16.7,30.01,ESE,112,0.0,-999.0,20,-99.99,,,0.00,Acu-Link.com,2013-05-04 03:15:00,
2013-05-03 21:30:00,55.9,17.6,30.00,SW,225,0.0,-999.0,22,-99.99,,,0.00,Acu-Link.com,2013-05-04 03:30:00,
2013-05-03 21:45:00,54.9,17.8,30.01,SW,225,0.0,-999.0,23,-99.99,,,0.00,Acu-Link.com,2013-05-04 03:45:00,
2013-05-03 22:00:00,53.1,19.1,30.02,WNW,292,0.0,-999.0,26,-99.99,,,0.00,Acu-Link.com,2013-05-04 04:00:00,
2013-05-03 22:16:00,51.4,19.4,30.00,WSW,247,0.0,-999.0,28,-99.99,,,0.00,Acu-Link.com,2013-05-04 04:16:00,
2013-05-03 22:31:00,51.1,18.3,30.01,WSW,247,0.0,-999.0,27,-99.99,,,0.00,Acu-Link.com,2013-05-04 04:31:00,
2013-05-03 22:46:00,50.4,19.4,30.01,NW,315,0.0,-999.0,29,-99.99,,,0.00,Acu-Link.com,2013-05-04 04:46:00,
2013-05-03 23:01:00,49.3,20.0,30.00,WSW,247,0.0,-999.0,31,-99.99,,,0.00,Acu-Link.com,2013-05-04 05:01:00,
2013-05-03 23:16:00,49.3,16.8,30.00,WSW,247,0.0,-999.0,27,-99.99,,,0.00,Acu-Link.com,2013-05-04 05:16:00,
2013-05-03 23:31:00,49.1,18.2,30.00,SW,225,0.0,-999.0,29,-99.99,,,0.00,Acu-Link.com,2013-05-04 05:31:00,
2013-05-03 23:46:00,53.6,15.7,29.99,SSW,202,0.0,-999.0,22,-99.99,,,0.00,Acu-Link.com,2013-05-04 05:46:00,